Location: Boiro
(42.6475°N, 8.8834°W)
Time: 09:04:56
(UTC+02:00)

First-Move - Pass Details

Date: 19 April 2024
Orbit: 538 x 600 km, 97.7° (Epoch: 20 May)

Event Time Altitude Azimuth Distance (km) Brightness Sun altitude
Rises 05:47:45 0° 16° (NNE) 2,861 ? -20.3°
Reaches altitude 10° 05:49:57 10° 20° (NNE) 1,960 ? -20.0°
Maximum altitude 05:54:10 60° 101° (E) 700 ? -19.4°
Enters shadow 05:56:45 23° 174° (S) 1,320 ? -19.0°
